SCP
0 0 0 0 0 0 0 0 0 0 0 0 0 0 0 0 0 0 0 0 0 0 0 0 0 0 0 0 0 0 0 0 0 0 0 0 0 0 0 0 0 0 0
0 0 0 0 0 0 0 0 0 0 0 0 0 0 0 0 0 0 0 0 0 0 0 0 0 0 0 0 0 0 0 0 0 0 0 0 0 0 0 0 0 0 0
0 0 0 0 0 0 0 0 0 0 0 0 0 0 0 0 0 0 0 0 0 0 0 0 0 0 0 0 0 0 0 0 0 0 0 0 0 0 0 0 0 0 0
0 0 0 0 0 0 0 0 0 0 0 0 0 0 0 0 0 0 0 0 0 0 0 0 0 0 0 0 0 0 0 0 0 0 0 0 0 0 0 0 0 0 0
0 0 0 0 0 0 0 0 0 0 0 0 0 0 0 0 0 0 0 0 0 0 0 0 0 0 0 0 0 0 0 0 0 0 0 0 0 0 0 0 0 0 0
0 0 0 0 0 0 0 0 0 0 0 0 0 0 0 0 0 0 0 0 0 0 0 0 0 0 0 0 0 0 0 0 0 0 0 0 0 0 0 0 0 0 0
0 0 0 0 0 0 0 0 0 0 0 0 0 0 0 0 0 0 0 0 0 0 0 0 0 0 0 0 0 0 0 0 0 0 0 0 0 0 0 0 0 0 0
0 0 0 0 0 0 0 0 0 0 0 0 0 0 0 0 0 0 0 0 0 0 0 0 0 0 0 0 0 0 0 0 0 0 0 0 0 0 0 0 0 0 0
0 0 0 0 0 0 0 0 0 0 0 0 0 0 0 0 0 0 0 0 0 0 0 0 0 0 0 0 0 0 0 0 0 0 0 0 0 0 0 0 0 0 0
0 0 0 0 0 0 0 0 0 0 0 0 0 0 0 0 0 0 0 0 0 0 0 0 0 0 0 0 0 0 0 0 0 0 0 0 0 0 0 0 0 0 0
0 0 0 0 0 0 0 0 0 0 0 0 0 0 0 0 0 0 0 0 0 0 0 0 0 0 0 0 0 0 0 0 0 0 0 0 0 0 0 0 0 0 0
0 0 0 0 0 0 0 0 0 0 0 0 0 0 0 0 0 0 0 0 0 0 0 0 0 0 0 0 0 0 0 0 0 0 0 0 0 0 0 0 0 0 0
0 0 0 0 0 0 0 0 0 0 0 0 0 0 0 0 0 0 0 0 0 0 0 0 0 0 0 0 0 0 0 0 0 0 0 0 0 0 0 0 0 0 0
0 0 0 0 0 0 0 0 0 0 0 0 0 0 0 0 0 0 0 0 0 0 0 0 0 0 0 0 0 0 0 0 0 0 0 0 0 0 0 0 0 0 0
0 0 0 0 0 0 0 0 0 0 0 0 0 0 0 0 0 0 0 0 0 0 0 0 0 0 0 0 0 0 0 0 0 0 0 0 0 0 0 0 0 0 0
0 0 0 0 0 0 0 0 0 0 0 0 0 0 0 0 0 0 0 0 0 0 0 0 0 0 0 0 0 0 0 0 0 0 0 0 0 0 0 0 0 0 0
0 0 0 0 0 0 0 0 0 0 0 0 0 0 0 0 0 0 0 0 0 0 0 0 0 0 0 0 0 0 0 0 0 0 0 0 0 0 0 0 0 0 0
0 0 0 0 0 0 0 0 0 0 0 0 0 0 0 0 0 0 0 0 0 0 0 0 0 0 0 0 0 0 0 0 0 0 0 0 0 0 0 0 0 0 0
0 0 0 0 0 0 0 0 0 0 0 0 0 0 0 0 0 0 0 0 0 0 0 0 0 0 0 0 0 0 0 0 0 0 0 0 0 0 0 0 0 0 0
0 0 0 0 0 0 0 0 0 0 0 0 0 0 0 0 0 0 0 0 0 0 0 0 0 0 0 0 0 0 0 0 0 0 0 0 0 0 0 0 0 0 0
0 0 0 0 0 0 0 0 0 0 0 0 0 0 0 0 0 0 0 0 0 0 0 0 0 0 0 0 0 0 0 0 0 0 0 0 0 0 0 0 0 0 0
0 0 0 0 0 0 0 0 0 0 0 0 0 0 0 0 0 0 0 0 0 0 0 0 0 0 0 0 0 0 0 0 0 0 0 0 0 0 0 0 0 0 0
0 0 0 0 0 0 0 0 0 0 0 0 0 0 0 0 0 0 0 0 0 0 0 0 0 0 0 0 0 0 0 0 0 0 0 0 0 0 0 0 0 0 0
0 0 0 0 0 0 0 0 0 0 0 0 0 0 0 0 0 0 0 0 0 0 0 0 0 0 0 0 0 0 0 0 0 0 0 0 0 0 0 0 0 0 0
0 0 0 0 0 0 0 0 0 0 0 0 0 0 0 0 0 0 0 0 0 0 0 0 0 0 0 0 0 0 0 0 0 0 0 0 0 0 0 0 0 0 -0
0 0 0 0 0 0 0 0 0 0 0 0 0 0 0 0 0 0 0 0 0 0 0 0 0 0 0 0 0 0 0 0 0 0 0 0 0 0 0 0 0 0 0
Wind_Speed_500mb
66 64 65 65 65 71 78 77 79 87 85 83 84 85 80 74 68 62 56 50 45 38 32 26 21 18 17 16 14 14 15 15 15 18 21 23 24 29 32 35 40 44 49
62 63 65 67 69 72 74 77 80 85 87 88 90 88 83 77 70 63 58 51 44 38 32 25 21 17 20 20 19 19 18 19 20 24 28 30 32 36 39 43 47 50 54
64 66 65 72 75 75 76 77 77 84 86 91 91 89 87 80 73 66 56 48 43 37 29 21 18 26 24 24 22 20 20 23 26 30 36 38 41 44 47 53 56 59 61
64 69 67 76 75 73 73 75 80 86 91 94 95 93 89 82 74 67 59 52 46 38 28 16 28 28 28 26 24 22 24 28 31 36 41 45 49 50 55 63 66 66 70
65 71 71 72 76 77 75 76 76 81 89 94 100 99 91 83 75 69 62 54 47 37 24 24 31 36 32 29 28 27 29 32 36 41 46 49 52 54 58 66 73 75 77
67 71 75 75 80 84 78 80 81 84 92 99 103 103 97 89 78 69 61 56 49 33 30 32 38 41 36 34 33 33 35 37 38 45 48 54 57 59 61 67 72 77 72
68 69 76 80 83 86 83 81 85 88 94 102 106 106 99 90 79 72 65 58 46 39 43 37 43 46 41 42 41 40 42 43 44 48 53 54 60 61 65 68 69 69 69
62 68 72 79 83 83 85 82 84 88 92 101 110 106 95 89 80 74 68 63 52 46 50 46 46 51 46 50 50 51 51 52 52 54 60 62 63 63 61 64 68 71 77
52 57 64 70 78 82 84 80 81 88 91 101 108 101 94 91 82 76 72 60 56 61 55 52 49 56 49 55 62 63 63 62 60 61 63 65 65 50 51 66 68 70 80
39 41 45 53 65 71 74 77 83 86 91 98 98 93 89 86 80 77 73 61 67 69 59 57 53 59 54 60 64 72 75 72 68 68 68 67 60 59 59 60 60 63 67
20 22 25 31 43 52 60 67 71 74 78 80 84 86 84 80 77 75 72 72 77 75 67 63 65 55 61 70 64 73 78 73 76 76 74 67 63 61 61 61 56 62 68
8 11 14 19 25 34 44 49 54 54 60 63 70 77 79 75 72 77 81 87 82 78 74 67 67 57 65 73 69 74 74 71 72 76 73 69 67 66 62 58 67 69 71
9 9 9 10 12 16 26 33 40 44 49 54 61 67 71 76 80 79 88 94 90 80 74 78 69 65 69 76 71 72 67 66 68 68 68 69 68 67 67 69 71 73 75
12 15 16 16 16 20 26 32 36 36 45 53 59 65 69 73 78 86 93 94 89 76 79 81 73 71 73 74 76 67 62 59 61 65 68 69 72 68 69 70 72 71 78
20 17 16 15 14 16 18 23 32 41 46 49 52 56 64 71 80 88 90 87 75 70 68 78 78 78 76 73 70 69 64 62 63 66 68 65 63 64 68 70 72 72 73
19 17 15 14 13 15 16 23 28 31 36 42 47 52 60 69 71 67 60 58 58 56 62 69 73 73 74 73 70 67 67 63 59 56 56 59 64 68 70 69 70 70 71
18 14 11 9 8 9 12 16 20 21 27 33 43 45 48 50 52 53 51 49 48 49 56 56 58 62 63 61 60 56 53 51 54 60 65 65 63 64 64 64 63 63 62
19 15 11 7 5 6 8 11 18 22 24 29 35 38 41 43 46 45 43 45 43 45 46 45 47 48 48 48 47 49 52 59 62 62 61 61 58 56 55 55 54 55 53
11 8 4 4 6 9 11 14 18 21 25 30 35 38 35 34 35 38 34 31 33 37 41 42 42 42 44 48 53 56 57 59 61 59 55 53 49 50 48 48 49 49 46
6 6 8 10 14 17 18 20 23 26 29 31 34 35 36 36 33 29 32 34 35 37 38 42 45 47 48 48 51 54 54 52 52 50 48 46 43 43 44 43 43 45 42
8 9 11 13 16 18 20 22 25 27 28 30 33 37 40 41 41 41 38 38 39 41 42 43 42 43 45 47 49 49 46 42 42 41 41 40 39 38 39 41 41 41 39
10 12 14 16 18 20 21 24 26 28 30 33 35 38 47 39 40 39 39 39 40 40 41 41 42 41 42 42 42 40 38 36 36 38 38 36 36 35 36 37 37 36 35
12 14 16 18 20 22 24 25 27 28 30 32 34 37 38 38 37 38 38 40 40 42 42 40 39 38 37 36 35 35 35 34 35 36 34 35 34 32 33 34 33 32 31
13 15 18 20 22 24 25 26 28 29 31 32 34 36 38 38 39 40 42 43 43 42 43 41 39 35 34 33 33 35 35 33 35 35 36 36 34 32 33 32 31 30 30
17 19 21 24 26 27 28 29 31 32 32 34 36 38 41 43 43 43 44 44 43 42 42 41 38 36 34 33 33 35 36 35 34 34 35 37 35 34 34 32 31 31 32
19 20 22 24 26 29 30 32 35 37 38 42 44 45 46 46 45 44 44 46 45 44 41 40 40 39 38 36 35 36 36 35 34 33 34 35 35 34 34 33 34 33 31
Wind_Direction_500mb
232 238 231 227 226 227 230 229 226 222 214 210 208 205 203 202 202 203 202 201 199 199 198 200 205 217 227 229 239 254 264 266 262 268 276 282 288 294 300 308 315 321 325
235 239 233 227 228 228 227 228 227 224 216 211 207 206 204 204 205 204 204 200 200 200 200 200 207 232 234 243 252 256 264 270 273 274 280 284 289 295 300 308 312 314 317
237 240 233 227 228 230 233 233 231 225 218 214 210 210 207 206 205 205 204 203 200 198 197 195 253 234 241 249 255 264 275 280 279 280 285 290 293 298 304 306 308 310 311
237 239 237 230 229 231 236 235 232 227 220 215 211 212 210 208 206 205 202 200 198 195 191 229 240 240 245 252 260 270 279 281 284 285 287 292 295 301 304 304 304 308 311
238 238 239 235 232 233 235 236 236 231 223 215 211 211 211 209 208 206 203 200 198 192 208 226 243 245 246 255 264 272 279 283 285 287 289 292 296 299 300 303 306 309 310
242 240 237 234 234 233 235 237 238 233 223 215 213 213 210 208 207 206 205 202 196 202 231 226 244 246 250 257 262 268 275 281 287 286 290 292 297 297 300 302 306 310 313
246 243 240 236 233 233 235 239 239 235 226 218 215 213 211 209 206 207 205 203 200 225 255 228 244 251 254 260 263 267 273 278 284 285 289 293 295 300 300 301 301 304 308
248 245 240 239 238 235 235 237 239 237 229 222 218 215 212 211 207 207 208 201 219 243 247 232 245 252 258 265 265 268 272 277 281 283 287 292 292 292 294 295 297 304 305
247 245 244 240 238 237 235 237 241 238 230 224 220 217 215 213 210 210 210 209 232 254 248 235 239 252 256 271 272 271 273 275 278 282 283 284 286 293 282 286 292 297 304
251 250 246 243 240 239 239 240 241 237 230 224 220 219 219 217 215 215 214 223 242 258 249 249 238 249 254 265 275 276 276 279 282 281 280 283 284 283 282 285 292 296 302
245 244 243 241 242 240 239 239 240 237 231 226 226 223 222 221 221 221 218 235 250 261 249 255 248 246 255 266 275 273 276 281 280 282 283 284 286 289 295 294 288 294 301
210 212 217 220 228 233 236 237 238 236 233 226 226 227 226 225 224 227 229 244 258 262 260 255 256 247 256 265 275 275 278 282 283 284 287 288 291 293 295 286 291 297 299
145 150 171 196 199 215 227 226 229 232 229 226 226 229 232 233 230 230 239 249 261 262 264 260 265 252 256 267 273 272 276 276 277 278 278 281 285 288 288 290 293 295 296
139 142 151 163 178 189 199 214 228 228 223 223 225 228 231 234 235 238 248 256 258 259 267 260 263 261 261 268 270 273 272 271 272 275 276 279 284 286 288 291 293 294 294
123 124 129 139 160 184 201 217 226 231 237 240 242 242 237 237 238 247 257 265 264 262 267 255 257 262 266 270 274 277 279 280 278 274 275 278 283 287 290 292 292 291 292
116 125 129 138 160 184 203 216 225 230 234 238 240 243 246 253 260 262 260 260 260 257 253 252 253 256 261 266 270 274 275 275 274 275 278 284 288 291 292 292 290 291 293
125 120 123 133 159 192 211 227 235 234 231 234 242 246 248 249 253 257 260 261 259 254 250 253 254 256 260 264 270 272 274 276 280 285 289 291 292 292 291 290 290 292 293
124 124 123 124 161 200 210 234 242 244 244 248 253 254 253 256 257 257 255 251 246 247 254 255 255 257 261 264 267 272 277 283 286 288 291 294 294 293 292 294 294 293 294
148 154 171 216 245 255 255 253 256 258 255 253 256 263 267 262 255 257 263 254 248 246 250 255 259 262 266 270 274 278 281 284 288 292 294 293 294 294 296 296 296 296 297
224 258 271 271 272 271 272 273 272 268 262 259 257 256 256 260 260 256 252 249 247 249 252 257 261 267 271 274 276 279 283 286 289 291 292 294 295 294 296 295 296 297 297
244 253 256 259 259 262 264 262 259 258 258 255 251 250 249 248 251 253 255 255 256 259 261 263 266 269 272 276 278 280 283 286 287 290 291 292 293 293 293 295 296 297 296
258 265 266 264 265 263 259 256 254 254 252 250 248 245 250 255 256 256 256 256 256 258 262 266 269 270 271 272 275 279 282 285 286 286 289 292 293 294 294 292 290 292 294
269 269 269 267 263 260 258 256 255 253 250 247 246 248 253 253 254 257 258 261 262 265 267 268 268 269 269 270 273 278 282 286 285 286 289 290 293 294 291 289 288 288 289
272 274 275 273 270 268 267 265 264 262 260 257 254 254 255 256 257 258 261 263 265 265 266 267 266 265 266 271 276 281 285 287 287 288 287 287 288 288 287 285 285 286 285
289 283 278 275 272 269 265 262 259 255 255 257 257 257 259 262 264 264 264 264 264 265 266 267 266 268 271 273 277 280 284 288 287 285 283 283 283 283 283 283 282 279 278
289 289 288 286 284 281 278 275 273 272 271 270 270 270 269 268 267 266 266 266 265 264 264 266 270 273 274 276 275 276 279 281 281 282 281 280 280 279 277 277 277 277 275
Wind_Speed_850mb
66 64 65 65 65 71 78 77 79 87 85 83 84 85 80 74 68 62 56 50 45 38 32 26 21 18 17 16 14 14 15 15 15 18 21 23 24 29 32 35 40 44 49
62 63 65 67 69 72 74 77 80 85 87 88 90 88 83 77 70 63 58 51 44 38 32 25 21 17 20 20 19 19 18 19 20 24 28 30 32 36 39 43 47 50 54
64 66 65 72 75 75 76 77 77 84 86 91 91 89 87 80 73 66 56 48 43 37 29 21 18 26 24 24 22 20 20 23 26 30 36 38 41 44 47 53 56 59 61
64 69 67 76 75 73 73 75 80 86 91 94 95 93 89 82 74 67 59 52 46 38 28 16 28 28 28 26 24 22 24 28 31 36 41 45 49 50 55 63 66 66 70
65 71 71 72 76 77 75 76 76 81 89 94 100 99 91 83 75 69 62 54 47 37 24 24 31 36 32 29 28 27 29 32 36 41 46 49 52 54 58 66 73 75 77
67 71 75 75 80 84 78 80 81 84 92 99 103 103 97 89 78 69 61 56 49 33 30 32 38 41 36 34 33 33 35 37 38 45 48 54 57 59 61 67 72 77 72
68 69 76 80 83 86 83 81 85 88 94 102 106 106 99 90 79 72 65 58 46 39 43 37 43 46 41 42 41 40 42 43 44 48 53 54 60 61 65 68 69 69 69
62 68 72 79 83 83 85 82 84 88 92 101 110 106 95 89 80 74 68 63 52 46 50 46 46 51 46 50 50 51 51 52 52 54 60 62 63 63 61 64 68 71 77
52 57 64 70 78 82 84 80 81 88 91 101 108 101 94 91 82 76 72 60 56 61 55 52 49 56 49 55 62 63 63 62 60 61 63 65 65 50 51 66 68 70 80
39 41 45 53 65 71 74 77 83 86 91 98 98 93 89 86 80 77 73 61 67 69 59 57 53 59 54 60 64 72 75 72 68 68 68 67 60 59 59 60 60 63 67
20 22 25 31 43 52 60 67 71 74 78 80 84 86 84 80 77 75 72 72 77 75 67 63 65 55 61 70 64 73 78 73 76 76 74 67 63 61 61 61 56 62 68
8 11 14 19 25 34 44 49 54 54 60 63 70 77 79 75 72 77 81 87 82 78 74 67 67 57 65 73 69 74 74 71 72 76 73 69 67 66 62 58 67 69 71
9 9 9 10 12 16 26 33 40 44 49 54 61 67 71 76 80 79 88 94 90 80 74 78 69 65 69 76 71 72 67 66 68 68 68 69 68 67 67 69 71 73 75
12 15 16 16 16 20 26 32 36 36 45 53 59 65 69 73 78 86 93 94 89 76 79 81 73 71 73 74 76 67 62 59 61 65 68 69 72 68 69 70 72 71 78
20 17 16 15 14 16 18 23 32 41 46 49 52 56 64 71 80 88 90 87 75 70 68 78 78 78 76 73 70 69 64 62 63 66 68 65 63 64 68 70 72 72 73
19 17 15 14 13 15 16 23 28 31 36 42 47 52 60 69 71 67 60 58 58 56 62 69 73 73 74 73 70 67 67 63 59 56 56 59 64 68 70 69 70 70 71
18 14 11 9 8 9 12 16 20 21 27 33 43 45 48 50 52 53 51 49 48 49 56 56 58 62 63 61 60 56 53 51 54 60 65 65 63 64 64 64 63 63 62
19 15 11 7 5 6 8 11 18 22 24 29 35 38 41 43 46 45 43 45 43 45 46 45 47 48 48 48 47 49 52 59 62 62 61 61 58 56 55 55 54 55 53
11 8 4 4 6 9 11 14 18 21 25 30 35 38 35 34 35 38 34 31 33 37 41 42 42 42 44 48 53 56 57 59 61 59 55 53 49 50 48 48 49 49 46
6 6 8 10 14 17 18 20 23 26 29 31 34 35 36 36 33 29 32 34 35 37 38 42 45 47 48 48 51 54 54 52 52 50 48 46 43 43 44 43 43 45 42
8 9 11 13 16 18 20 22 25 27 28 30 33 37 40 41 41 41 38 38 39 41 42 43 42 43 45 47 49 49 46 42 42 41 41 40 39 38 39 41 41 41 39
10 12 14 16 18 20 21 24 26 28 30 33 35 38 47 39 40 39 39 39 40 40 41 41 42 41 42 42 42 40 38 36 36 38 38 36 36 35 36 37 37 36 35
12 14 16 18 20 22 24 25 27 28 30 32 34 37 38 38 37 38 38 40 40 42 42 40 39 38 37 36 35 35 35 34 35 36 34 35 34 32 33 34 33 32 31
13 15 18 20 22 24 25 26 28 29 31 32 34 36 38 38 39 40 42 43 43 42 43 41 39 35 34 33 33 35 35 33 35 35 36 36 34 32 33 32 31 30 30
17 19 21 24 26 27 28 29 31 32 32 34 36 38 41 43 43 43 44 44 43 42 42 41 38 36 34 33 33 35 36 35 34 34 35 37 35 34 34 32 31 31 32
19 20 22 24 26 29 30 32 35 37 38 42 44 45 46 46 45 44 44 46 45 44 41 40 40 39 38 36 35 36 36 35 34 33 34 35 35 34 34 33 34 33 31
Wind_Direction_850mb
232 238 231 227 226 227 230 229 226 222 214 210 208 205 203 202 202 203 202 201 199 199 198 200 205 217 227 229 239 254 264 266 262 268 276 282 288 294 300 308 315 321 325
235 239 233 227 228 228 227 228 227 224 216 211 207 206 204 204 205 204 204 200 200 200 200 200 207 232 234 243 252 256 264 270 273 274 280 284 289 295 300 308 312 314 317
237 240 233 227 228 230 233 233 231 225 218 214 210 210 207 206 205 205 204 203 200 198 197 195 253 234 241 249 255 264 275 280 279 280 285 290 293 298 304 306 308 310 311
237 239 237 230 229 231 236 235 232 227 220 215 211 212 210 208 206 205 202 200 198 195 191 229 240 240 245 252 260 270 279 281 284 285 287 292 295 301 304 304 304 308 311
238 238 239 235 232 233 235 236 236 231 223 215 211 211 211 209 208 206 203 200 198 192 208 226 243 245 246 255 264 272 279 283 285 287 289 292 296 299 300 303 306 309 310
242 240 237 234 234 233 235 237 238 233 223 215 213 213 210 208 207 206 205 202 196 202 231 226 244 246 250 257 262 268 275 281 287 286 290 292 297 297 300 302 306 310 313
246 243 240 236 233 233 235 239 239 235 226 218 215 213 211 209 206 207 205 203 200 225 255 228 244 251 254 260 263 267 273 278 284 285 289 293 295 300 300 301 301 304 308
248 245 240 239 238 235 235 237 239 237 229 222 218 215 212 211 207 207 208 201 219 243 247 232 245 252 258 265 265 268 272 277 281 283 287 292 292 292 294 295 297 304 305
247 245 244 240 238 237 235 237 241 238 230 224 220 217 215 213 210 210 210 209 232 254 248 235 239 252 256 271 272 271 273 275 278 282 283 284 286 293 282 286 292 297 304
251 250 246 243 240 239 239 240 241 237 230 224 220 219 219 217 215 215 214 223 242 258 249 249 238 249 254 265 275 276 276 279 282 281 280 283 284 283 282 285 292 296 302
245 244 243 241 242 240 239 239 240 237 231 226 226 223 222 221 221 221 218 235 250 261 249 255 248 246 255 266 275 273 276 281 280 282 283 284 286 289 295 294 288 294 301
210 212 217 220 228 233 236 237 238 236 233 226 226 227 226 225 224 227 229 244 258 262 260 255 256 247 256 265 275 275 278 282 283 284 287 288 291 293 295 286 291 297 299
145 150 171 196 199 215 227 226 229 232 229 226 226 229 232 233 230 230 239 249 261 262 264 260 265 252 256 267 273 272 276 276 277 278 278 281 285 288 288 290 293 295 296
139 142 151 163 178 189 199 214 228 228 223 223 225 228 231 234 235 238 248 256 258 259 267 260 263 261 261 268 270 273 272 271 272 275 276 279 284 286 288 291 293 294 294
123 124 129 139 160 184 201 217 226 231 237 240 242 242 237 237 238 247 257 265 264 262 267 255 257 262 266 270 274 277 279 280 278 274 275 278 283 287 290 292 292 291 292
116 125 129 138 160 184 203 216 225 230 234 238 240 243 246 253 260 262 260 260 260 257 253 252 253 256 261 266 270 274 275 275 274 275 278 284 288 291 292 292 290 291 293
125 120 123 133 159 192 211 227 235 234 231 234 242 246 248 249 253 257 260 261 259 254 250 253 254 256 260 264 270 272 274 276 280 285 289 291 292 292 291 290 290 292 293
124 124 123 124 161 200 210 234 242 244 244 248 253 254 253 256 257 257 255 251 246 247 254 255 255 257 261 264 267 272 277 283 286 288 291 294 294 293 292 294 294 293 294
148 154 171 216 245 255 255 253 256 258 255 253 256 263 267 262 255 257 263 254 248 246 250 255 259 262 266 270 274 278 281 284 288 292 294 293 294 294 296 296 296 296 297
224 258 271 271 272 271 272 273 272 268 262 259 257 256 256 260 260 256 252 249 247 249 252 257 261 267 271 274 276 279 283 286 289 291 292 294 295 294 296 295 296 297 297
244 253 256 259 259 262 264 262 259 258 258 255 251 250 249 248 251 253 255 255 256 259 261 263 266 269 272 276 278 280 283 286 287 290 291 292 293 293 293 295 296 297 296
258 265 266 264 265 263 259 256 254 254 252 250 248 245 250 255 256 256 256 256 256 258 262 266 269 270 271 272 275 279 282 285 286 286 289 292 293 294 294 292 290 292 294
269 269 269 267 263 260 258 256 255 253 250 247 246 248 253 253 254 257 258 261 262 265 267 268 268 269 269 270 273 278 282 286 285 286 289 290 293 294 291 289 288 288 289
272 274 275 273 270 268 267 265 264 262 260 257 254 254 255 256 257 258 261 263 265 265 266 267 266 265 266 271 276 281 285 287 287 288 287 287 288 288 287 285 285 286 285
289 283 278 275 272 269 265 262 259 255 255 257 257 257 259 262 264 264 264 264 264 265 266 267 266 268 271 273 277 280 284 288 287 285 283 283 283 283 283 283 282 279 278
289 289 288 286 284 281 278 275 273 272 271 270 270 270 269 268 267 266 266 266 265 264 264 266 270 273 274 276 275 276 279 281 281 282 281 280 280 279 277 277 277 277 275